Date,TemperatureHighF,TemperatureAvgF,TemperatureLowF,DewpointHighF,DewpointAvgF,DewpointLowF,HumidityHigh,HumidityAvg,HumidityLow,PressureMaxIn,PressureMinIn,WindSpeedMaxMPH,WindSpeedAvgMPH,GustSpeedMaxMPH,PrecipitationSumIn
2013-7-1,82.1,75.4,71.3,76.7,72.1,69.6,96,90,78,30.07,29.92,10,0,0,0.07
2013-7-2,84.1,74.1,64.3,75.0,69.6,61.0,93,86,70,30.20,30.07,7,0,0,0.00
2013-7-3,90.5,75.5,63.6,75.4,69.0,60.9,94,81,58,30.19,30.12,5,0,0,0.00
2013-7-4,93.3,82.2,72.1,76.3,73.5,70.3,95,77,55,30.19,30.08,7,0,0,0.00
2013-7-5,94.4,84.1,75.5,77.2,73.9,71.4,89,73,52,30.15,30.02,7,0,0,0.00
2013-7-6,91.5,82.4,74.8,75.4,72.3,66.4,90,73,53,30.06,29.96,8,0,0,0.00
2013-7-7,92.5,79.5,69.9,77.4,71.3,66.1,92,77,56,30.01,29.89,4,0,0,0.00
2013-7-8,86.5,76.3,67.6,75.8,71.3,65.2,95,85,68,30.05,29.90,6,0,0,0.05
2013-7-9,74.2,69.1,65.3,68.3,65.5,63.6,96,89,81,30.10,30.03,3,0,0,0.00
2013-7-10,86.4,74.5,66.7,76.0,70.4,64.4,96,88,69,30.07,29.78,9,0,0,0.04
2013-7-11,81.3,75.2,71.0,75.3,72.1,68.5,97,90,77,29.91,29.77,5,0,0,0.14
2013-7-12,75.5,70.9,67.0,69.3,62.2,55.8,94,75,57,30.19,29.91,7,1,0,0.00
2013-7-13,77.1,70.7,66.3,70.5,66.5,62.5,94,87,78,30.30,30.18,4,0,0,0.00
2013-7-14,92.0,79.4,69.9,74.5,71.8,68.1,97,79,49,30.30,30.19,7,0,0,0.00
2013-7-15,92.1,80.4,70.5,75.4,72.3,69.0,97,78,53,30.19,30.08,5,0,0,0.00
2013-7-16,94.5,81.5,71.3,72.8,69.3,66.2,93,68,45,30.15,30.09,6,0,0,0.00
2013-7-17,95.8,82.7,71.1,74.8,71.4,68.0,92,71,41,30.16,29.99,7,0,0,0.00
2013-7-18,92.3,83.1,75.5,75.9,72.8,68.9,88,72,47,29.99,29.92,7,0,0,0.00
2013-7-19,98.4,86.0,75.4,78.2,75.0,71.5,93,72,45,29.93,29.70,9,1,15,0.00
2013-7-20,94.0,84.3,77.0,78.8,74.2,65.6,89,73,49,29.79,29.63,7,0,0,0.00
2013-7-21,83.7,75.7,69.7,68.8,65.4,61.5,91,71,55,29.97,29.80,7,0,0,0.00
2013-7-22,82.7,73.2,66.5,70.6,67.4,64.8,96,83,63,30.00,29.87,7,0,0,0.00
2013-7-23,81.0,72.6,69.7,77.4,70.9,66.8,97,94,81,29.87,29.53,5,0,0,1.39
2013-7-24,84.7,76.0,67.9,74.2,68.1,55.8,98,78,55,29.94,29.57,7,0,0,0.00
2013-7-25,67.4,61.2,58.6,58.4,54.8,49.8,96,80,64,30.10,29.94,10,1,0,0.70
2013-7-26,71.2,64.4,59.2,67.8,62.3,58.1,97,93,87,30.06,29.93,8,0,0,0.74
2013-7-27,84.3,71.3,58.7,68.8,63.9,57.3,97,79,52,30.05,29.98,7,0,0,0.01
2013-7-28,82.0,71.8,65.6,72.3,67.7,63.5,96,87,71,30.01,29.95,6,0,0,0.03
2013-7-29,85.5,72.7,66.9,73.2,68.4,65.2,96,87,63,30.03,29.95,6,0,0,0.30
2013-7-30,83.0,71.8,59.8,67.3,61.0,56.6,97,72,42,30.09,30.02,8,0,0,0.00
2013-7-31,83.6,72.1,60.1,64.2,60.5,56.6,94,70,43,30.13,30.03,5,0,0,0.00